Weather History for KVTA - June, 2013

Change the Weather History Date:

Thursday, June 27, 2013

  Actual Average Record
Temperature  
Mean Temperature 77 °F -  
Max Temperature 86 °F 84 °F 97 °F (1966)
Min Temperature 68 °F 58 °F 45 °F (1981)
Cooling Degree Days 12    
Growing Degree Days 27 (Base 50)    
Moisture  
Dew Point 68 °F    
Average Humidity 83    
Maximum Humidity 96    
Minimum Humidity 58    
Precipitation  
Precipitation 0.14 in - - ()
Sea Level Pressure  
Sea Level Pressure 29.74 in    
Wind  
Wind Speed 3 mph (WSW)    
Max Wind Speed 12 mph    
Max Gust Speed 17 mph    
Visibility 9 miles    
Events Rain , Thunderstorm    
Averages and records for this station are not official NWS values.
T = Trace of Precipitation, MM = Missing Value Source: NWS Daily Summary

Daily Weather History Graph

Daily Weather History Graph

Search for Another Location

Airport or City:

Trip Planner

Search our weather history database for the weather conditions in past years. The results will help you decide how hot, cold, wet, or windy it might be!

Date:

Astronomy

Jun. 27, 2013 Rise Set
Actual Time 6:03 AM EDT 9:02 PM EDT
Civil Twilight 5:30 AM EDT 9:35 PM EDT
Nautical Twilight 4:48 AM EDT 10:17 PM EDT
Astronomical Twilight 3:59 AM EDT 11:05 PM EDT
Moon 11:59 PM EDT (6/27) 11:02 AM EDT (6/27)
Length of Visible Light 16h 05m
Length of Day
14h 59m
Waning Gibbous, 76% of the Moon is Illuminated
Jun 27
Waning Gibbous
Jun 30
Last Quarter
Jul 8
New
Jul 15
First Quarter
Jul 22
Full

Hourly Weather History & Observations

Time (EDT) Temp. Heat Index Dew Point Humidity Pressure Visibility Wind Dir Wind Speed Gust Speed Precip Events Conditions
12:54 AM 69.1 °F - 66.9 °F 93% 29.79 in 6.0 mi Calm Calm - 0.02 in Rain Light Rain
1:28 AM 69.8 °F - 66.2 °F 88% 29.80 in 9.0 mi Calm Calm - 0.00 in Rain Light Rain
1:45 AM 69.8 °F - 68.0 °F 94% 29.80 in 6.0 mi SE 3.5 mph - 0.01 in Rain Light Rain
1:54 AM 69.1 °F - 68.0 °F 96% 29.77 in 5.0 mi East 3.5 mph - 0.01 in Rain Light Rain
2:23 AM 69.8 °F - 68.0 °F 94% 29.78 in 9.0 mi ESE 3.5 mph - 0.00 in   Overcast
2:34 AM 69.8 °F - 68.0 °F 94% 29.78 in 8.0 mi Calm Calm - 0.00 in Rain Light Rain
2:40 AM 69.8 °F - 68.0 °F 94% 29.78 in 9.0 mi Calm Calm - 0.00 in Rain Light Rain
2:46 AM 69.8 °F - 68.0 °F 94% 29.78 in 10.0 mi Calm Calm - 0.00 in Rain Light Rain
2:54 AM 70.0 °F - 68.0 °F 93% 29.76 in 10.0 mi Calm Calm - 0.00 in Rain Light Rain
3:54 AM 70.0 °F - 68.0 °F 93% 29.74 in 10.0 mi Calm Calm - 0.00 in   Overcast
4:33 AM 69.8 °F - 68.0 °F 94% 29.76 in 10.0 mi WSW 3.5 mph - N/A   Overcast
4:40 AM 69.8 °F - 68.0 °F 94% 29.76 in 10.0 mi Calm Calm - N/A   Overcast
4:49 AM 69.8 °F - 68.0 °F 94% 29.77 in 10.0 mi SW 4.6 mph - N/A   Overcast
4:54 AM 70.0 °F - 68.0 °F 93% 29.75 in 10.0 mi SW 3.5 mph - N/A   Overcast
5:07 AM 69.8 °F - 68.0 °F 94% 29.76 in 9.0 mi Calm Calm - N/A   Overcast
5:15 AM 69.8 °F - 68.0 °F 94% 29.76 in 9.0 mi Calm Calm - N/A   Overcast
5:26 AM 69.8 °F - 68.0 °F 94% 29.76 in 8.0 mi SW 4.6 mph - N/A   Overcast
5:44 AM 69.8 °F - 66.2 °F 88% 29.76 in 8.0 mi SW 4.6 mph - N/A   Overcast
5:54 AM 69.1 °F - 66.9 °F 93% 29.74 in 9.0 mi SW 8.1 mph - N/A   Overcast
6:03 AM 69.8 °F - 66.2 °F 88% 29.76 in 9.0 mi SW 4.6 mph - N/A   Overcast
6:46 AM 69.8 °F - 66.2 °F 88% 29.77 in 7.0 mi WSW 5.8 mph - N/A   Overcast
6:54 AM 69.1 °F - 66.9 °F 93% 29.75 in 8.0 mi WSW 6.9 mph - N/A   Overcast
7:32 AM 69.8 °F - 66.2 °F 88% 29.76 in 10.0 mi SW 4.6 mph - N/A   Overcast
7:54 AM 69.1 °F - 66.9 °F 93% 29.75 in 10.0 mi SW 4.6 mph - 0.00 in   Overcast
8:54 AM 68.0 °F - 66.0 °F 93% 29.75 in 10.0 mi SW 6.9 mph - 0.00 in   Overcast
9:54 AM 69.1 °F - 66.9 °F 93% 29.75 in 2.5 mi SW 5.8 mph - N/A   Overcast
10:12 AM 69.8 °F - 66.2 °F 88% 29.76 in 3.0 mi WSW 4.6 mph - N/A   Overcast
10:54 AM 71.1 °F - 68.0 °F 90% 29.74 in 9.0 mi WSW 8.1 mph - N/A   Overcast
11:54 AM 71.1 °F - 68.0 °F 90% 29.74 in 5.0 mi WSW 4.6 mph - N/A   Overcast
12:47 PM 73.4 °F - 69.8 °F 88% 29.75 in 10.0 mi WSW 6.9 mph - N/A   Overcast
12:54 PM 75.9 °F - 70.0 °F 82% 29.73 in 10.0 mi West 6.9 mph - N/A   Overcast
1:01 PM 75.2 °F - 69.8 °F 83% 29.75 in 10.0 mi West 9.2 mph - N/A   Overcast
1:15 PM 77.0 °F - 69.8 °F 78% 29.75 in 10.0 mi WSW 10.4 mph - N/A   Mostly Cloudy
1:31 PM 78.8 °F - 71.6 °F 78% 29.75 in 10.0 mi West 8.1 mph - N/A   Mostly Cloudy
1:54 PM 79.0 °F - 70.0 °F 74% 29.73 in 10.0 mi West 10.4 mph - N/A   Mostly Cloudy
2:02 PM 78.8 °F - 69.8 °F 74% 29.74 in 10.0 mi Variable 5.8 mph - N/A   Mostly Cloudy
2:33 PM 80.6 °F 83.9 °F 69.8 °F 70% 29.73 in 10.0 mi West 4.6 mph - N/A   Mostly Cloudy
2:54 PM 82.0 °F 85.5 °F 69.1 °F 65% 29.71 in 10.0 mi Variable 4.6 mph - N/A   Scattered Clouds
3:54 PM 82.9 °F 87.0 °F 70.0 °F 65% 29.70 in 10.0 mi WSW 8.1 mph - 0.00 in   Scattered Clouds
4:09 PM 82.4 °F 86.3 °F 69.8 °F 66% 29.72 in 10.0 mi West 9.2 mph - N/A   Mostly Cloudy
4:34 PM 84.2 °F 88.4 °F 69.8 °F 62% 29.71 in 10.0 mi West 5.8 mph - N/A   Mostly Cloudy
4:54 PM 86.0 °F 90.7 °F 70.0 °F 59% 29.67 in 10.0 mi West 11.5 mph - N/A   Mostly Cloudy
5:43 PM 82.4 °F 86.3 °F 69.8 °F 66% 29.69 in 10.0 mi West 8.1 mph - N/A Thunderstorm Mostly Cloudy
5:54 PM 84.0 °F 87.0 °F 68.0 °F 58% 29.67 in 10.0 mi WNW 9.2 mph 17.3 mph N/A Thunderstorm Mostly Cloudy
6:03 PM 82.4 °F 86.3 °F 69.8 °F 66% 29.69 in 10.0 mi North 9.2 mph - N/A   Mostly Cloudy
6:47 PM 82.4 °F 86.3 °F 69.8 °F 66% 29.69 in 10.0 mi NW 3.5 mph - N/A   Scattered Clouds
6:54 PM 81.0 °F 84.1 °F 69.1 °F 67% 29.67 in 10.0 mi WNW 3.5 mph - N/A   Scattered Clouds
7:54 PM 80.1 °F 83.2 °F 70.0 °F 71% 29.68 in 10.0 mi North 3.5 mph - N/A   Partly Cloudy
8:05 PM 80.6 °F 83.9 °F 69.8 °F 70% 29.70 in 10.0 mi Calm Calm - N/A   Partly Cloudy
8:54 PM 78.1 °F - 70.0 °F 76% 29.68 in 10.0 mi Calm Calm - N/A   Scattered Clouds
9:54 PM 75.0 °F - 69.1 °F 82% 29.69 in 10.0 mi Calm Calm - N/A   Partly Cloudy
10:14 PM 75.2 °F - 68.0 °F 78% 29.71 in 10.0 mi Variable 6.9 mph - N/A Thunderstorm Mostly Cloudy
10:24 PM 71.6 °F - 66.2 °F 83% 29.72 in 2.5 mi Calm Calm - 0.09 in Rain Heavy Rain
10:39 PM 69.8 °F - 66.2 °F 88% 29.72 in 10.0 mi East 3.5 mph - 0.10 in Rain Light Rain
10:54 PM 70.0 °F - 66.9 °F 90% 29.70 in 10.0 mi ENE 3.5 mph - 0.11 in Rain Light Rain
11:54 PM 69.1 °F - 66.0 °F 90% 29.66 in 10.0 mi Calm Calm - 0.00 in   Clear